Skip Page Navigation
NASA JPL Caltech
NASA Logo - Jet Propulsion Laboratory + View the NASA Portal
+ Center for Near-Earth Object Studies
JPL Home Earth Solar System Stars & Galaxies Technology
JPL Solar System Dynamics
BODIES ORBITS EPHEMERIDES TOOLS PHYSICAL DATA DISCOVERY FAQ SITE MAP
JPL Small-Body Database Browser
Search: [ help ]  
82464 Jaroslavbocek (2001 OE17)
Classification: Main-belt Asteroid          SPK-ID: 2082464
Ephemeris | Orbit Diagram | Orbital Elements | Mission Design | Physical Parameters | Discovery Circumstances | Close-Approach Data ]

[ hide orbit diagram ]

For accurate long-term ephemerides, please instead use our Horizons system.This orbit viewer was implemented using two-body methods, and hence should not be used for determining accurate long-term trajectories (over several years or decades) or planetary encounter circumstances.


[ revert to old Java-based viewer ]

Orbital Elements at Epoch 2459000.5 (2020-May-31.0) TDB
Reference: JPL 29 (heliocentric ecliptic J2000)
 Element Value Uncertainty (1-sigma)   Units 
e .1115323907673614 4.0502e-08  
a 3.087203490100464 2.3126e-08 au
q 2.742880304064217 1.25e-07 au
i .674434055347065 4.4661e-06 deg
node 254.3103755669093 0.00047644 deg
peri 165.739848331472 0.00047719 deg
M 64.81473471663716 2.5287e-05 deg
tp 2458643.788132051595
(2019-Jun-09.28813205)
0.00013899 TDB
period 1981.282080731294
5.42
2.2262e-05
6.095e-08
d
yr
n .1817005279062149 2.0416e-09 deg/d
Q 3.43152667613671 2.5705e-08 au
  Orbit Determination Parameters
   # obs. used (total)      587  
   data-arc span      10441 days (28.59 yr)  
   first obs. used      1991-10-13  
   last obs. used      2020-05-14  
   planetary ephem.      DE431  
   SB-pert. ephem.      SB431-N16  
   condition code      0  
   norm. resid. RMS      .53943  
   source      ORB  
   producer      Otto Matic  
   solution date      2020-Nov-12 21:11:43  

Additional Information
 Earth MOID = 1.75547 au 
 Jupiter MOID = 1.87159 au 
 T_jup = 3.216 
[ show covariance matrix ]

Ephemeris | Orbit Diagram | Orbital Elements | Mission Design | Physical Parameters | Discovery Circumstances | Close-Approach Data ]

Physical Parameter Table
Parameter Symbol Value Units Sigma Reference Notes
absolute magnitude H 15.4   n/a MPO459378  

82464 Jaroslavboček           Discovered 2001 July 21 by P. Pravec and L. Sarounova at Ondrejov.
Jaroslav Boček (b. 1947) has worked on the Astronomical Institute of the Czech Academy of Sciences for several decades. He was involved in the European Network for photographing fireballs and his technical skills were crucial for running all-sky cameras on Czech stations of the network. The name was suggested by P. Spurný.
NOTE: some special characters may not display properly (any characters within {} are an attempt to place the proper accent above a character)
Reference: MPC batch dated 2015-02-03Last Updated: 2015-02-04

[ show close-approach data ]
Alternate Designations
 2001 OE17 = 2002 TG32 
Ephemeris | Orbit Diagram | Orbital Elements | Mission Design | Physical Parameters | Discovery Circumstances | Close-Approach Data ]
ABOUT SSD CREDITS/AWARDS PRIVACY/COPYRIGHT GLOSSARY LINKS
FirstGov 2020-Dec-02 11:14 UT
(server date/time)  
NASA Home Page
Site Manager:   Ryan S. Park
Webmaster  Alan B. Chamberlin